Date String (YYYY-MM-DD hh:mm:ss) UTC,Instrument flags,Ambient pressure (hPa),Sample flow (lpm),Bypass flow (lpm),Sample temperature (°C),Ambient temperature (°C),ASC tube jacket temperature (°C),LED temperature (°C),Box temperature (°C),Sample RH (%),Span deviation,Mass concentration (μg/m³),Mass concentration (μg/m³),Mass concentration (μg/m³)
DateTimeUTC,F1_M11,P_M11,Q1_M11,Q2_M11,T1_M11,T2_M11,T3_M11,T4_M11,T5_M11,U1_M11,ZSPAN_M11,X0_M11,X2_M11,X1_M11
2022-10-01 03:00:00,,0827.7,5.00,0.00,29.8,28.3,00.0,38.6,31.7,29.0,0000.0,0005.10,0002.66,0002.07
2022-10-01 03:01:00,,0827.7,5.00,0.00,29.8,28.4,00.0,38.6,31.7,28.9,0000.0,0004.97,0002.61,0002.06
2022-10-01 03:02:00,,0827.7,5.02,0.00,29.9,28.4,00.0,38.6,31.7,28.6,0000.0,0004.41,0002.63,0002.07
2022-10-01 03:03:00,,0827.8,4.99,0.00,29.9,28.3,00.0,38.7,31.7,28.5,0000.0,0004.65,0002.67,0002.05
2022-10-01 03:04:00,,0827.8,5.00,0.00,29.9,28.3,00.0,38.7,31.7,28.5,0000.0,0006.30,0002.67,0002.05
2022-10-01 03:05:00,,0827.9,5.00,0.00,29.9,28.3,00.0,38.6,31.7,28.4,0000.0,0006.18,0002.62,0002.03
2022-10-01 03:06:00,,0827.9,5.01,0.00,29.8,28.3,00.0,38.7,31.7,28.5,0000.0,0005.95,0002.60,0002.02
2022-10-01 03:07:00,,0827.9,4.99,0.00,29.8,28.3,00.0,38.7,31.7,28.7,0000.0,0005.97,0002.62,0002.00
2022-10-01 03:08:00,,0827.9,5.01,0.00,29.8,28.2,00.0,38.6,31.6,28.8,0000.0,0006.07,0002.66,0001.98
2022-10-01 03:09:00,,0828.0,5.01,0.00,29.8,28.1,00.0,38.6,31.6,28.9,0000.0,0005.97,0002.64,0001.97
2022-10-01 03:10:00,,0828.0,5.00,0.00,29.8,28.1,00.0,38.6,31.6,29.1,0000.0,0006.03,0002.66,0001.95
2022-10-01 03:11:00,,0828.0,4.99,0.00,29.8,28.2,00.0,38.6,31.6,29.2,0000.0,0006.04,0002.71,0001.95
2022-10-01 03:12:00,,0828.1,5.00,0.00,29.8,28.1,00.0,38.6,31.6,29.3,0000.0,0006.10,0002.76,0001.94
2022-10-01 03:13:00,,0828.1,5.00,0.00,29.7,28.1,00.0,38.6,31.5,29.1,0000.0,0006.06,0002.76,0001.94
2022-10-01 03:14:00,,0828.0,5.00,0.00,29.7,28.0,00.0,38.6,31.5,29.2,0000.0,0005.91,0002.74,0001.93
2022-10-01 03:15:00,,0828.0,5.01,0.00,29.7,28.0,00.0,38.6,31.5,29.3,0000.0,0004.47,0002.73,0001.92
2022-10-01 03:16:00,,0828.0,5.00,0.00,29.7,27.9,00.0,38.6,31.4,29.1,0000.0,0004.43,0002.79,0001.92
2022-10-01 03:17:00,,0827.9,5.00,0.00,29.6,27.9,00.0,38.5,31.4,28.8,0000.0,0004.43,0002.77,0001.90
2022-10-01 03:18:00,,0827.8,5.00,0.00,29.6,27.9,00.0,38.5,31.4,28.8,0000.0,0004.29,0002.71,0001.89
2022-10-01 03:19:00,,0827.7,5.01,0.00,29.6,27.8,00.0,38.5,31.3,28.7,0000.0,0004.09,0002.60,0001.86
2022-10-01 03:20:00,,0827.6,5.00,0.00,29.6,27.7,00.0,38.5,31.3,28.6,0000.0,0004.03,0002.54,0001.81
2022-10-01 03:21:00,,0827.5,5.00,0.00,29.6,27.8,00.0,38.5,31.4,28.2,0000.0,0003.99,0002.46,0001.73
2022-10-01 03:22:00,,0827.2,5.00,0.00,29.6,27.9,00.0,38.5,31.4,28.2,0000.0,0003.86,0002.36,0001.66
2022-10-01 03:23:00,,0827.1,4.99,0.00,29.6,28.0,00.0,38.4,31.4,28.0,0000.0,0003.84,0002.29,0001.60
2022-10-01 03:24:00,,0827.3,5.00,0.00,29.6,28.1,00.0,38.5,31.5,27.9,0000.0,0003.86,0002.24,0001.54
2022-10-01 03:25:00,,0827.0,5.00,0.00,29.6,28.2,00.0,38.5,31.5,27.9,0000.0,0003.78,0002.17,0001.48
2022-10-01 03:26:00,,0826.9,5.00,0.00,29.7,28.3,00.0,38.5,31.5,27.5,0000.0,0003.61,0002.07,0001.42
2022-10-01 03:27:00,,0826.8,5.01,0.00,29.7,28.3,00.0,38.5,31.5,27.6,0000.0,0003.55,0002.00,0001.37
2022-10-01 03:28:00,,0827.0,4.99,0.00,29.7,28.3,00.0,38.5,31.6,27.7,0000.0,0003.68,0002.01,0001.34
2022-10-01 03:29:00,,0826.8,5.01,0.00,29.7,28.4,00.0,38.5,31.6,27.8,0000.0,0003.75,0002.02,0001.31
2022-10-01 03:30:00,,0827.3,4.98,0.00,29.7,28.4,00.0,38.5,31.6,27.4,0000.0,0003.90,0002.01,0001.28
2022-10-01 03:31:00,,0827.0,5.00,0.00,29.8,28.4,00.0,38.5,31.7,26.9,0000.0,0003.82,0001.96,0001.25
2022-10-01 03:32:00,,0826.9,5.00,0.00,29.8,28.5,00.0,38.5,31.7,26.4,0000.0,0003.66,0001.90,0001.22
2022-10-01 03:33:00,,0826.9,4.98,0.00,29.8,28.5,00.0,38.5,31.7,25.4,0000.0,0003.46,0001.81,0001.18
2022-10-01 03:34:00,,0827.1,5.00,0.00,29.8,28.5,00.0,38.5,31.7,25.0,0000.0,0003.14,0001.69,0001.13
2022-10-01 03:35:00,,0827.1,5.01,0.00,29.8,28.5,00.0,38.5,31.7,25.2,0000.0,0002.92,0001.59,0001.09
2022-10-01 03:36:00,,0827.0,5.00,0.00,29.8,28.5,00.0,38.5,31.8,25.6,0000.0,0002.80,0001.53,0001.06
2022-10-01 03:37:00,,0827.1,4.99,0.00,29.9,28.5,00.0,38.6,31.7,26.0,0000.0,0002.78,0001.51,0001.05
2022-10-01 03:38:00,,0827.0,5.01,0.00,29.9,28.6,00.0,38.6,31.7,26.4,0000.0,0002.72,0001.51,0001.04
2022-10-01 03:39:00,,0826.9,5.00,0.00,29.9,28.6,00.0,38.6,31.8,26.7,0000.0,0002.57,0001.41,0001.02
2022-10-01 03:40:00,,0827.0,4.99,0.00,29.9,28.6,00.0,38.6,31.8,26.9,0000.0,0002.70,0001.38,0001.01
2022-10-01 03:41:00,,0826.9,5.01,0.00,29.9,28.6,00.0,38.6,31.8,28.1,0000.0,0002.61,0001.42,0001.04
2022-10-01 03:42:00,,0827.1,4.99,0.00,29.9,28.6,00.0,38.6,31.8,28.8,0000.0,0002.82,0001.53,0001.08
2022-10-01 03:43:00,,0826.9,4.99,0.00,29.9,28.6,00.0,38.7,31.8,28.2,0000.0,0003.02,0001.64,0001.13
2022-10-01 03:44:00,,0826.8,5.01,0.00,30.0,28.6,00.0,38.7,31.8,27.7,0000.0,0003.31,0001.78,0001.20
2022-10-01 03:45:00,,0826.8,5.00,0.00,30.0,28.6,00.0,38.7,31.9,27.3,0000.0,0003.52,0001.90,0001.27
2022-10-01 03:46:00,,0826.8,5.00,0.00,30.0,28.6,00.0,38.7,31.9,27.0,0000.0,0004.15,0002.05,0001.31
2022-10-01 03:47:00,,0826.8,4.99,0.00,30.0,28.7,00.0,38.7,31.9,26.8,0000.0,0004.34,0002.11,0001.34
2022-10-01 03:48:00,,0826.9,5.00,0.00,30.0,28.7,00.0,38.7,31.9,26.9,0000.0,0004.40,0002.16,0001.36
2022-10-01 03:49:00,,0826.9,5.00,0.00,30.0,28.7,00.0,38.7,31.9,27.2,0000.0,0004.65,0002.27,0001.41
2022-10-01 03:50:00,,0827.0,5.01,0.00,30.0,28.7,00.0,38.7,31.9,27.5,0000.0,0004.69,0002.34,0001.45
2022-10-01 03:51:00,,0827.0,4.99,0.00,30.0,28.7,00.0,38.7,31.9,27.7,0000.0,0004.44,0002.38,0001.48
2022-10-01 03:52:00,,0827.1,5.01,0.00,30.1,28.8,00.0,38.7,31.9,27.9,0000.0,0004.45,0002.40,0001.51
2022-10-01 03:53:00,,0827.3,5.00,0.00,30.1,28.8,00.0,38.8,31.9,28.2,0000.0,0004.36,0002.37,0001.54
2022-10-01 03:54:00,,0826.8,4.99,0.00,30.1,28.8,00.0,38.8,32.0,27.5,0000.0,0004.38,0002.37,0001.55
2022-10-01 03:55:00,,0826.8,5.00,0.00,30.1,28.8,00.0,38.8,32.0,26.4,0000.0,0004.25,0002.30,0001.51
2022-10-01 03:56:00,,0826.9,5.01,0.00,30.1,28.8,00.0,38.8,32.0,25.8,0000.0,0004.20,0002.26,0001.50
2022-10-01 03:57:00,,0826.9,5.00,0.00,30.1,28.8,00.0,38.8,32.0,23.9,0000.0,0003.78,0002.18,0001.46
2022-10-01 03:58:00,,0826.9,4.99,0.00,30.1,28.8,00.0,38.8,32.0,22.8,0000.0,0003.46,0002.09,0001.39
2022-10-01 03:59:00,,0827.0,5.00,0.00,30.1,28.8,00.0,38.8,32.0,24.1,0000.0,0003.26,0002.01,0001.35
